User: anonymous
Location: Caltech
(34.1382°N, 118.1253°W)
Time: 14:05:12
(UTC-07:00)
Language:

OAO 1 Rocket - Orbit

View from above orbital plane
View from above orbital plane
View from above satellite
View from above satellite

Ground track
Ground track

The orbit data is extracted from the following two-line orbital elements,

1 02144U 66031B   14243.67356269  .00000160  00000-0  53943-4 0  7044
2 02144 035.0429 091.3707 0008566 317.1351 042.8670 14.42150391540678
Epoch (UTC): 31 August 2014 16:09:55
Eccentricity: 0.0008566
inclination: 35.0429°
perigee height: 745 km
apogee height: 757 km
right ascension of ascending node: 91.3707°
argument of perigee: 317.1351°
revolutions per day: 14.42150391
mean anomaly at epoch: 42.8670°
orbit number at epoch: 54067

The dashed part of the orbit path shows where the satellite is in the earth's shadow,  

DLR